User: anonymous   Login
Location: Fort Wayne
(41.1310°N, 85.1290°W)
Time: 08:04:35
(UTC-04:00)
Language:

Cosmos 1953 - Orbit

View from above orbital plane
View from above orbital plane
View from above satellite
View from above satellite

Ground track
Ground track

The orbit data is extracted from the following two-line orbital elements,

1 19210U 88050A   16210.58696405  .00000924  00000-0  63312-4 0  9991
2 19210  82.5185 347.0250 0012036 286.5354  73.4550 15.04860009529160
Epoch (UTC): 28 July 2016 14:05:13
Eccentricity: 0.0012036
inclination: 82.5185°
perigee height: 543 km
apogee height: 560 km
right ascension of ascending node: 347.0250°
argument of perigee: 286.5354°
revolutions per day: 15.04860009
mean anomaly at epoch: 73.4550°
orbit number at epoch: 52916

The dashed part of the orbit path shows where the satellite is in the earth's shadow,  

DLR